Weather History for KFRM - January, 2014

Change the Weather History Date:

Tuesday, January 21, 2014

  Actual Average Record
Temperature  
Mean Temperature -2 °F -  
Max Temperature 10 °F 27 °F 51 °F (1964)
Min Temperature -13 °F 7 °F -33 °F (1970)
Degree Days  
Heating Degree Days 66    
Moisture  
Dew Point -10 °F    
Average Humidity 65    
Maximum Humidity 85    
Minimum Humidity 45    
Precipitation  
Precipitation 0.00 in - - ()
Sea Level Pressure  
Sea Level Pressure 30.25 in    
Wind  
Wind Speed 12 mph (SW)    
Max Wind Speed 18 mph    
Max Gust Speed 22 mph    
Visibility 9 miles    
Events      
Averages and records for this station are not official NWS values.
T = Trace of Precipitation, MM = Missing Value Source: NWS Daily Summary

Daily Weather History Graph

Daily Weather History Graph

Search for Another Location

Airport or City:

Trip Planner

Search our weather history database for the weather conditions in past years. The results will help you decide how hot, cold, wet, or windy it might be!

Date:

Astronomy

Jan. 21, 2014 Rise Set
Actual Time 7:44 AM CST 5:14 PM CST
Civil Twilight 7:12 AM CST 5:45 PM CST
Nautical Twilight 6:37 AM CST 6:20 PM CST
Astronomical Twilight 6:03 AM CST 6:54 PM CST
Moon 10:59 PM CST (1/21) 10:03 AM CST (1/21)
Length of Visible Light 10h 32m
Length of Day
9h 29m
Waning Gibbous, 74% of the Moon is Illuminated
Jan 21
Waning Gibbous
Jan 23
Last Quarter
Jan 30
New
Feb 6
First Quarter
Feb 14
Full

Hourly Weather History & Observations

Time (CST) Temp. Windchill Dew Point Humidity Pressure Visibility Wind Dir Wind Speed Gust Speed Precip Events Conditions
12:15 AM -5.8 °F -28.8 °F -13.0 °F 71% 30.42 in 10.0 mi NNW 18.4 mph - N/A   Clear
12:35 AM -7.6 °F -31.1 °F -13.0 °F 77% 30.42 in 10.0 mi NW 18.4 mph - N/A   Clear
12:55 AM -7.6 °F -28.3 °F -13.0 °F 77% 30.43 in 10.0 mi NW 13.8 mph 21.9 mph N/A   Clear
1:15 AM -7.6 °F -29.1 °F -13.0 °F 77% 30.43 in 10.0 mi NW 15.0 mph 21.9 mph N/A   Clear
1:35 AM -7.6 °F -29.1 °F -14.8 °F 71% 30.43 in 10.0 mi NW 15.0 mph - N/A   Clear
1:55 AM -9.4 °F -30.6 °F -14.8 °F 77% 30.44 in 10.0 mi NW 13.8 mph - N/A   Clear
2:15 AM -9.4 °F -28.9 °F -14.8 °F 77% 30.44 in 10.0 mi NW 11.5 mph - N/A   Clear
2:35 AM -9.4 °F -29.8 °F -16.6 °F 71% 30.44 in 10.0 mi NNW 12.7 mph - N/A   Clear
2:55 AM -9.4 °F -29.8 °F -14.8 °F 77% 30.44 in 10.0 mi NW 12.7 mph - N/A   Clear
3:15 AM -9.4 °F -30.6 °F -16.6 °F 71% 30.44 in 10.0 mi NNW 13.8 mph - N/A   Clear
3:35 AM -11.2 °F -31.1 °F -16.6 °F 77% 30.44 in 10.0 mi NW 11.5 mph - N/A   Clear
3:55 AM -11.2 °F -30.1 °F -16.6 °F 77% 30.44 in 10.0 mi NW 10.4 mph - N/A   Clear
4:15 AM -11.2 °F -27.8 °F -18.4 °F 70% 30.44 in 10.0 mi NW 8.1 mph - N/A   Clear
4:35 AM -11.2 °F -27.8 °F - N/A% 30.44 in 10.0 mi NW 8.1 mph - N/A   Clear
4:55 AM -11.2 °F -27.8 °F - N/A% 30.44 in 10.0 mi NW 8.1 mph - N/A   Clear
5:15 AM -11.2 °F -23.0 °F - N/A% 30.42 in 10.0 mi NNW 4.6 mph - N/A   Clear
5:35 AM -11.2 °F -27.8 °F - N/A% 30.42 in 10.0 mi NW 8.1 mph - N/A   Clear
5:55 AM -13.0 °F -25.1 °F - N/A% 30.40 in 10.0 mi NNW 4.6 mph - N/A   Clear
6:15 AM -13.0 °F - - N/A% 30.38 in 10.0 mi Calm Calm - N/A   Clear
6:35 AM -13.0 °F -22.7 °F - N/A% 30.38 in 10.0 mi NW 3.5 mph - N/A   Clear
6:55 AM -13.0 °F -25.1 °F - N/A% 30.38 in 10.0 mi NW 4.6 mph - N/A   Clear
7:15 AM -13.0 °F -27.0 °F -18.4 °F 77% 30.38 in 10.0 mi WNW 5.8 mph - N/A   Clear
7:35 AM - - - N/A% 30.38 in 10.0 mi WNW 6.9 mph - N/A   Clear
7:55 AM -11.2 °F -26.4 °F -27.4 °F 45% 30.38 in 10.0 mi WNW 6.9 mph - N/A   Clear
8:15 AM -11.2 °F -26.4 °F -25.6 °F 49% 30.39 in 10.0 mi West 6.9 mph - N/A   Clear
8:35 AM -11.2 °F -23.0 °F -25.6 °F 49% 30.38 in 10.0 mi West 4.6 mph - N/A   Clear
8:55 AM -9.4 °F -20.9 °F -25.6 °F 45% 30.38 in 10.0 mi West 4.6 mph - N/A   Clear
9:15 AM -9.4 °F -20.9 °F -23.8 °F 49% 30.38 in 10.0 mi WSW 4.6 mph - N/A   Clear
9:35 AM -7.6 °F -20.6 °F -23.8 °F 45% 30.38 in 10.0 mi WSW 5.8 mph - N/A   Clear
9:55 AM -7.6 °F -16.5 °F -20.2 °F 54% 30.37 in 10.0 mi SW 3.5 mph - N/A   Clear
10:15 AM -5.8 °F -16.7 °F -20.2 °F 50% 30.36 in 10.0 mi SSW 4.6 mph - N/A   Scattered Clouds
10:35 AM -5.8 °F -19.9 °F -20.2 °F 50% 30.34 in 10.0 mi South 6.9 mph - N/A   Mostly Cloudy
10:55 AM -5.8 °F -19.9 °F -18.4 °F 55% 30.34 in 10.0 mi South 6.9 mph - N/A   Overcast
11:15 AM -4.0 °F -20.2 °F -18.4 °F 50% 30.34 in 10.0 mi SSW 9.2 mph - N/A   Overcast
11:35 AM -2.2 °F -18.0 °F -16.6 °F 50% 30.32 in 10.0 mi South 9.2 mph - N/A   Overcast
11:55 AM -2.2 °F -16.8 °F -14.8 °F 55% 30.30 in 10.0 mi South 8.1 mph - N/A   Overcast
12:15 PM -2.2 °F -16.8 °F -14.8 °F 55% 30.28 in 10.0 mi South 8.1 mph - N/A   Overcast
12:35 PM -0.4 °F -15.7 °F -14.8 °F 51% 30.25 in 10.0 mi South 9.2 mph - N/A   Overcast
12:55 PM -0.4 °F -17.6 °F -11.2 °F 60% 30.23 in 10.0 mi South 11.5 mph - N/A   Overcast
1:15 PM 1.4 °F -16.1 °F -11.2 °F 56% 30.21 in 10.0 mi South 12.7 mph - N/A   Overcast
1:35 PM 1.4 °F -15.3 °F -11.2 °F 56% 30.19 in 10.0 mi South 11.5 mph - N/A   Overcast
1:55 PM 1.4 °F -16.9 °F -9.4 °F 61% 30.17 in 10.0 mi South 13.8 mph - N/A   Overcast
2:15 PM 3.2 °F -14.6 °F -7.6 °F 61% 30.17 in 10.0 mi South 13.8 mph - N/A   Overcast
2:35 PM 3.2 °F -15.9 °F -7.6 °F 61% 30.15 in 8.0 mi South 16.1 mph - N/A   Overcast
2:55 PM 3.2 °F -15.3 °F -7.6 °F 61% 30.14 in 2.0 mi South 15.0 mph - N/A   Overcast
3:15 PM 3.2 °F -14.6 °F -5.8 °F 66% 30.14 in 1.5 mi South 13.8 mph - N/A   Overcast
3:35 PM 3.2 °F -14.6 °F -5.8 °F 66% 30.13 in 2.5 mi South 13.8 mph - N/A   Overcast
3:55 PM 3.2 °F -14.6 °F -2.2 °F 78% 30.12 in 2.0 mi South 13.8 mph - N/A   Overcast
4:15 PM 3.2 °F -15.3 °F -2.2 °F 78% 30.11 in 3.0 mi SSE 15.0 mph - N/A   Overcast
4:35 PM 5.0 °F -13.6 °F -2.2 °F 72% 30.10 in 3.0 mi SSE 16.1 mph - N/A   Overcast
4:55 PM 5.0 °F -14.2 °F -2.2 °F 72% 30.08 in 2.5 mi SSE 17.3 mph - N/A   Overcast
5:15 PM 5.0 °F -13.6 °F -4.0 °F 66% 30.09 in 7.0 mi South 16.1 mph - N/A   Overcast
5:35 PM 5.0 °F -12.3 °F -2.2 °F 72% 30.10 in 4.0 mi South 13.8 mph - N/A   Overcast
5:55 PM 5.0 °F -13.0 °F -2.2 °F 72% 30.09 in 10.0 mi South 15.0 mph - N/A   Overcast
6:15 PM 6.8 °F -10.0 °F -2.2 °F 67% 30.09 in 10.0 mi South 13.8 mph - N/A   Overcast
6:35 PM 6.8 °F -9.3 °F -4.0 °F 61% 30.10 in 10.0 mi South 12.7 mph - N/A   Overcast
6:55 PM 6.8 °F -10.0 °F -2.2 °F 67% 30.10 in 10.0 mi South 13.8 mph - N/A   Overcast
7:15 PM 6.8 °F -9.3 °F -2.2 °F 67% 30.08 in 10.0 mi South 12.7 mph - N/A   Overcast
7:35 PM 6.8 °F -11.8 °F -4.0 °F 61% 30.07 in 10.0 mi South 17.3 mph - N/A   Overcast
7:55 PM 6.8 °F -12.4 °F -2.2 °F 67% 30.06 in 10.0 mi South 18.4 mph - N/A   Overcast
8:15 PM 6.8 °F -10.0 °F -2.2 °F 67% 30.06 in 10.0 mi South 13.8 mph - N/A   Overcast
8:35 PM 6.8 °F -11.3 °F -0.4 °F 72% 30.05 in 10.0 mi South 16.1 mph - N/A   Overcast
8:55 PM 6.8 °F -10.7 °F -0.4 °F 72% 30.03 in 10.0 mi South 15.0 mph - N/A   Overcast
9:15 PM 6.8 °F -10.0 °F -0.4 °F 72% 30.03 in 10.0 mi South 13.8 mph - N/A   Overcast
9:35 PM 8.6 °F -7.7 °F -0.4 °F 67% 30.02 in 10.0 mi SSW 13.8 mph - N/A   Overcast
9:55 PM 8.6 °F -6.3 °F -0.4 °F 67% 30.01 in 10.0 mi SSW 11.5 mph 17.3 mph N/A   Overcast
10:15 PM 8.6 °F -5.5 °F 1.4 °F 73% 30.02 in 10.0 mi SSW 10.4 mph - N/A   Overcast
10:35 PM 8.6 °F -5.5 °F 1.4 °F 73% 30.01 in 10.0 mi SSW 10.4 mph - N/A   Overcast
10:55 PM 8.6 °F -6.3 °F 1.4 °F 73% 30.00 in 10.0 mi SSW 11.5 mph - N/A   Overcast
11:15 PM 8.6 °F -7.0 °F -0.4 °F 67% 29.98 in 10.0 mi SSW 12.7 mph - N/A   Overcast
11:35 PM 10.4 °F -3.3 °F -0.4 °F 62% 29.99 in 10.0 mi SSW 10.4 mph - N/A   Overcast
11:55 PM 10.4 °F -1.5 °F 6.8 °F 85% 29.99 in 10.0 mi SW 8.1 mph - N/A   Overcast